Simultaneous Nadir Overpasses (SNOs) Predictions

Prediction of SNOs between GOES-15 and NOAA-20 Satellite Orbit:

Table of predicted SNOs for the next 14.0 days since TLE Epoch: 8/7/2020
Index Date Time (GOES-15) GOES-15 Lat,Lon NOAA-20 Lat,Lon Distance(km) Time Diff (sec)
1 08/08/2020 09:46:25 -0.01,-128.28 -0.55,-125.83 278.58 80
2 08/09/2020 22:08:20 0.01,-128.19 -0.64,-131.13 334.94 80
3 08/10/2020 21:52:14 0.01,-128.17 0.35,-126.60 178.81 80
4 08/12/2020 10:11:22 -0.01,-128.17 0.80,-131.87 421.37 80
5 08/13/2020 09:55:16 -0.01,-128.14 -0.20,-127.34 91.78 80
6 08/15/2020 21:55:46 0.02,-128.00 0.01,-128.10 10.64 80
7 08/18/2020 09:58:47 -0.02,-127.96 0.20,-128.82 99.52 80
8 08/19/2020 09:42:41 -0.02,-127.92 -0.80,-124.29 412.84 80
9 08/20/2020 22:01:57 0.02,-127.81 -0.39,-129.59 203.52 80
